This is the latest recevied weather packets stored in our database for station/object N4YH-13. If no packets are shown the sender has not sent any weather packets the latest 10 day(s).
| Time | Temp. | Humidity | Pressure | Rain* | Wind** | Luminosity | Snow |
|---|---|---|---|---|---|---|---|
| 1777825564 | 12.78° C | 60% | 1019.3 hPa | 0 mm | - | - | - |
| 1777825444 | 12.78° C | 61% | 1019.3 hPa | 0 mm | - | - | - |
| 1777825324 | 12.78° C | 62% | 1019.3 hPa | 0 mm | - | - | - |
| 1777825204 | 12.78° C | 61% | 1019.3 hPa | 0 mm | - | - | - |
| 1777825083 | 12.78° C | 62% | 1019.3 hPa | 0 mm | - | - | - |
| 1777824963 | 12.22° C | 62% | 1019.2 hPa | 0 mm | - | - | - |
| 1777824843 | 12.22° C | 59% | 1019.2 hPa | 0 mm | - | - | - |
| 1777824724 | 12.22° C | 58% | 1019.2 hPa | 0 mm | - | - | - |
| 1777824604 | 12.22° C | 58% | 1019.4 hPa | 0 mm | - | - | - |
| 1777824484 | 12.78° C | 58% | 1019.4 hPa | 0 mm | - | - | - |
| 1777824363 | 12.22° C | 59% | 1019.2 hPa | 0 mm | - | - | - |
| 1777824243 | 12.22° C | 60% | 1019.2 hPa | 0 mm | - | - | - |
| 1777824123 | 12.78° C | 57% | 1019.4 hPa | 0 mm | - | - | - |
| 1777824004 | 12.78° C | 57% | 1019.4 hPa | 0 mm | - | - | - |
| 1777823884 | 12.78° C | 58% | 1019.4 hPa | 0 mm | - | - | - |
| 1777823764 | 12.78° C | 60% | 1019.4 hPa | 0 mm | - | - | - |
| 1777823643 | 12.78° C | 59% | 1019.4 hPa | 0 mm | - | - | - |
| 1777823523 | 12.22° C | 62% | 1019.4 hPa | 0 mm | - | - | - |
| 1777823403 | 12.22° C | 61% | 1019.4 hPa | 0 mm | - | - | - |
| 1777823283 | 12.22° C | 62% | 1019.4 hPa | 0 mm | - | - | - |
| 1777823164 | 12.22° C | 62% | 1019.5 hPa | 0 mm | - | - | - |
| 1777823044 | 11.67° C | 60% | 1019.3 hPa | 0 mm | - | - | - |
| 1777822923 | 11.67° C | 62% | 1019.3 hPa | 0 mm | - | - | - |
| 1777822803 | 11.67° C | 60% | 1019.3 hPa | 0 mm | - | - | - |
| 1777822683 | 11.67° C | 60% | 1019.3 hPa | 0 mm | - | - | - |
* Rain latest hour (hover to see other rain measurements)
** Current wind speed in m/s (hover to see current wind gust speed)